• In Österreich
  • Länderverzeichnis
  • Für 7 Tage
  • Wassertemperatur
  • Satellitenkarten
  • Wetterkarte
  • News
  • Widgets
  • user-avatar
    Anmelden

    Stündliche Wetter Kadobna

    Heute, 15 November, Donnerstag

    Zeit Temperatur Niederschläge Wind Luftdruck Luftfeuchtigkeit
    00:00 +5°C° 0.2 mm 4 m/S 736 mmHg 91%
    01:00 +5°C° 0.2 mm 3 m/S 736 mmHg 91%
    02:00 +5°C° 0.2 mm 3 m/S 736 mmHg 91%
    03:00 +5°C° 0.1 mm 3 m/S 736 mmHg 91%
    04:00 +5°C° 0.1 mm 3 m/S 736 mmHg 92%
    05:00 +5°C° 0.1 mm 3 m/S 737 mmHg 92%
    06:00 +5°C° 0.2 mm 3 m/S 737 mmHg 92%
    07:00 +5°C° 0.2 mm 3 m/S 737 mmHg 92%
    08:00 +5°C° 0.2 mm 3 m/S 737 mmHg 92%
    09:00 +5°C° 0.3 mm 3 m/S 737 mmHg 89%
    10:00 +5°C° 0.3 mm 3 m/S 737 mmHg 86%
    11:00 +7°C° 0.3 mm 3 m/S 737 mmHg 83%
    12:00 +7°C° 0.3 mm 3 m/S 737 mmHg 80%
    13:00 +7°C° 0.3 mm 3 m/S 737 mmHg 77%
    14:00 +7°C° 0.3 mm 3 m/S 737 mmHg 74%
    15:00 +7°C° 0.4 mm 3 m/S 737 mmHg 77%
    16:00 +5°C° 0.4 mm 3 m/S 737 mmHg 81%
    17:00 +5°C° 0.4 mm 3 m/S 737 mmHg 84%
    18:00 +4°C° 0.2 mm 3 m/S 737 mmHg 85%
    19:00 +4°C° 0.2 mm 3 m/S 738 mmHg 86%
    20:00 +4°C° 0.2 mm 3 m/S 738 mmHg 87%
    21:00 +3°C° 0.1 mm 3 m/S 738 mmHg 87%
    22:00 +3°C° 0.1 mm 3 m/S 739 mmHg 87%
    23:00 +3°C° 0.1 mm 3 m/S 739 mmHg 87%

    Morgen, 16 November, Freitag

    Zeit Temperatur Niederschläge Wind Luftdruck Luftfeuchtigkeit
    00:00 +3°C° 0.1 mm 3 m/S 739 mmHg 87%
    01:00 +2°C° 0.1 mm 3 m/S 740 mmHg 87%
    02:00 +2°C° 0.1 mm 3 m/S 740 mmHg 87%
    03:00 +2°C° 0 mm 3 m/S 740 mmHg 88%
    04:00 +2°C° 0 mm 3 m/S 740 mmHg 88%
    05:00 +2°C° 0 mm 3 m/S 740 mmHg 88%
    06:00 +1°C° 0 mm 3 m/S 741 mmHg 88%
    07:00 +1°C° 0 mm 3 m/S 741 mmHg 88%
    08:00 +1°C° 0 mm 3 m/S 742 mmHg 88%
    09:00 +2°C° 0 mm 3 m/S 742 mmHg 84%
    10:00 +2°C° 0 mm 3 m/S 742 mmHg 79%
    11:00 +2°C° 0 mm 3 m/S 742 mmHg 75%
    12:00 +3°C° 0 mm 3 m/S 742 mmHg 70%
    13:00 +4°C° 0 mm 2 m/S 742 mmHg 66%
    14:00 +4°C° 0 mm 2 m/S 742 mmHg 61%
    15:00 +3°C° 0 mm 2 m/S 742 mmHg 65%
    16:00 +2°C° 0 mm 2 m/S 742 mmHg 69%
    17:00 +1°C° 0 mm 2 m/S 742 mmHg 74%
    18:00 +1°C° 0 mm 2 m/S 742 mmHg 75%
    19:00 -1°C° 0 mm 2 m/S 743 mmHg 77%
    20:00 -1°C° 0 mm 2 m/S 743 mmHg 79%
    21:00 -2°C° 0 mm 2 m/S 743 mmHg 80%
    22:00 -2°C° 0 mm 2 m/S 743 mmHg 80%
    23:00 -1°C° 0 mm 1 m/S 743 mmHg 81%

    übermorgen, 17 November, Samstag

    Zeit Temperatur Niederschläge Wind Luftdruck Luftfeuchtigkeit
    00:00 -1°C° 0 mm 1 m/S 743 mmHg 80%
    01:00 -1°C° 0 mm 1 m/S 743 mmHg 80%
    02:00 -1°C° 0 mm 1 m/S 743 mmHg 79%
    03:00 -1°C° 0 mm 1 m/S 743 mmHg 79%
    04:00 -1°C° 0 mm 1 m/S 743 mmHg 78%
    05:00 -1°C° 0 mm 1 m/S 743 mmHg 77%
    06:00 -1°C° 0 mm 1 m/S 743 mmHg 77%
    07:00 -1°C° 0 mm 1 m/S 743 mmHg 78%
    08:00 -1°C° 0 mm 1 m/S 743 mmHg 78%
    09:00 -2°C° 0 mm 2 m/S 743 mmHg 73%
    10:00 -1°C° 0 mm 2 m/S 743 mmHg 68%
    11:00 +1°C° 0 mm 2 m/S 743 mmHg 63%
    12:00 +2°C° 0 mm 2 m/S 743 mmHg 61%
    13:00 +2°C° 0 mm 2 m/S 743 mmHg 59%
    14:00 +3°C° 0 mm 2 m/S 742 mmHg 57%
    15:00 +3°C° 0 mm 1 m/S 742 mmHg 61%
    16:00 +2°C° 0 mm 1 m/S 742 mmHg 65%
    17:00 +1°C° 0 mm 1 m/S 742 mmHg 69%
    18:00 +1°C° 0 mm 1 m/S 742 mmHg 70%
    19:00 0°C° 0 mm 1 m/S 742 mmHg 70%
    20:00 0°C° 0 mm 1 m/S 741 mmHg 71%
    21:00 -1°C° 0 mm 0 m/S 741 mmHg 70%
    22:00 -1°C° 0 mm 0 m/S 741 mmHg 69%
    23:00 -1°C° 0 mm 0 m/S 741 mmHg 68%

    18 November, Sonntag

    Zeit Temperatur Niederschläge Wind Luftdruck Luftfeuchtigkeit
    00:00 -1°C° 0 mm 0 m/S 741 mmHg 67%
    01:00 -1°C° 0 mm 0 m/S 740 mmHg 67%
    02:00 -1°C° 0 mm 0 m/S 740 mmHg 66%
    03:00 -1°C° 0 mm 0 m/S 739 mmHg 66%
    04:00 0°C° 0 mm 1 m/S 739 mmHg 66%
    05:00 0°C° 0 mm 1 m/S 738 mmHg 66%
    06:00 0°C° 0 mm 1 m/S 738 mmHg 66%
    07:00 -1°C° 0 mm 1 m/S 737 mmHg 66%
    08:00 -1°C° 0 mm 1 m/S 737 mmHg 66%
    09:00 +1°C° 0 mm 1 m/S 736 mmHg 61%
    10:00 +1°C° 0 mm 2 m/S 736 mmHg 55%
    11:00 +3°C° 0 mm 2 m/S 735 mmHg 50%
    12:00 +3°C° 0 mm 2 m/S 735 mmHg 48%
    13:00 +4°C° 0 mm 2 m/S 734 mmHg 46%
    14:00 +4°C° 0 mm 2 m/S 733 mmHg 45%
    15:00 +3°C° 0 mm 2 m/S 733 mmHg 49%
    16:00 +2°C° 0 mm 2 m/S 732 mmHg 53%
    17:00 +1°C° 0 mm 2 m/S 731 mmHg 56%
    18:00 +1°C° 0.1 mm 2 m/S 731 mmHg 60%
    19:00 +1°C° 0.1 mm 2 m/S 730 mmHg 64%
    20:00 -1°C° 0.1 mm 2 m/S 730 mmHg 68%
    21:00 -1°C° 0.1 mm 2 m/S 730 mmHg 73%
    22:00 +1°C° 0.1 mm 1 m/S 729 mmHg 77%
    23:00 +1°C° 0.1 mm 1 m/S 729 mmHg 82%

    19 November, Montag

    Zeit Temperatur Niederschläge Wind Luftdruck Luftfeuchtigkeit
    00:00 +1°C° 0.1 mm 1 m/S 729 mmHg 84%
    01:00 +1°C° 0.1 mm 1 m/S 728 mmHg 86%
    02:00 0°C° 0.1 mm 1 m/S 728 mmHg 88%
    03:00 0°C° 0.1 mm 1 m/S 728 mmHg 89%
    04:00 -1°C° 0.1 mm 0 m/S 728 mmHg 90%
    05:00 -1°C° 0.1 mm 0 m/S 727 mmHg 92%
    06:00 0°C° 0.1 mm 1 m/S 727 mmHg 93%
    07:00 -1°C° 0.1 mm 1 m/S 727 mmHg 93%
    08:00 -1°C° 0.1 mm 1 m/S 727 mmHg 94%
    09:00 0°C° 0.1 mm 1 m/S 727 mmHg 90%
    10:00 +1°C° 0.1 mm 1 m/S 727 mmHg 86%
    11:00 +1°C° 0.1 mm 2 m/S 728 mmHg 82%
    12:00 +1°C° 0.1 mm 2 m/S 727 mmHg 81%
    13:00 +1°C° 0.1 mm 2 m/S 727 mmHg 80%
    14:00 +2°C° 0.1 mm 2 m/S 727 mmHg 80%
    15:00 +1°C° 0.1 mm 2 m/S 727 mmHg 83%
    16:00 +1°C° 0.1 mm 2 m/S 727 mmHg 86%
    17:00 -1°C° 0.1 mm 2 m/S 727 mmHg 90%
    18:00 -1°C° 0.1 mm 2 m/S 727 mmHg 91%
    19:00 -2°C° 0.1 mm 2 m/S 728 mmHg 92%
    20:00 -2°C° 0.1 mm 2 m/S 728 mmHg 93%
    21:00 -2°C° 0 mm 2 m/S 728 mmHg 93%
    22:00 -2°C° 0 mm 2 m/S 728 mmHg 92%
    23:00 -2°C° 0 mm 2 m/S 728 mmHg 92%

    20 November, Dienstag

    Zeit Temperatur Niederschläge Wind Luftdruck Luftfeuchtigkeit
    00:00 -2°C° 0 mm 2 m/S 728 mmHg 90%
    01:00 -2°C° 0 mm 2 m/S 728 mmHg 89%
    02:00 -3°C° 0 mm 2 m/S 728 mmHg 88%
    03:00 -3°C° 0 mm 2 m/S 728 mmHg 88%
    04:00 -3°C° 0 mm 2 m/S 728 mmHg 89%
    05:00 -3°C° 0 mm 2 m/S 728 mmHg 89%
    06:00 -3°C° 0 mm 2 m/S 728 mmHg 88%
    07:00 -1°C° 0 mm 1 m/S 728 mmHg 88%
    08:00 -1°C° 0 mm 1 m/S 728 mmHg 88%
    09:00 -1°C° 0 mm 2 m/S 728 mmHg 83%
    10:00 +1°C° 0 mm 2 m/S 728 mmHg 78%
    11:00 +3°C° 0 mm 2 m/S 728 mmHg 73%
    12:00 +3°C° 0 mm 2 m/S 728 mmHg 74%
    13:00 +3°C° 0 mm 2 m/S 727 mmHg 76%
    14:00 +3°C° 0 mm 2 m/S 727 mmHg 77%
    15:00 +3°C° 0.2 mm 2 m/S 727 mmHg 82%
    16:00 +2°C° 0.2 mm 2 m/S 726 mmHg 87%
    17:00 +1°C° 0.2 mm 2 m/S 726 mmHg 93%
    18:00 +2°C° 0.6 mm 2 m/S 726 mmHg 94%
    19:00 +2°C° 0.6 mm 2 m/S 725 mmHg 95%
    20:00 +2°C° 0.6 mm 2 m/S 725 mmHg 96%
    21:00 +2°C° 0.5 mm 2 m/S 724 mmHg 96%
    22:00 +2°C° 0.5 mm 2 m/S 724 mmHg 96%
    23:00 +3°C° 0.5 mm 2 m/S 723 mmHg 96%
    Mehr zeigen